Dewpoint
27 27 28 28 41 42 45 48 51 55 52 53 52 55 57 60 61 59 59 59 59 60 61 63 63 65 66 67 68 70 70 72 71 70 70 69 68 68 69 72 73 72 72 71
28 29 29 28 29 30 43 45 51 53 52 50 53 52 57 60 60 60 58 58 58 59 61 63 63 64 65 67 68 70 71 72 71 70 71 69 70 69 68 72 73 71 70 71
29 28 28 28 28 28 31 37 50 46 50 53 48 53 56 59 60 61 59 59 58 59 59 62 63 63 65 66 68 70 71 72 72 72 71 72 71 71 69 70 71 72 70 71
25 22 25 25 26 33 32 40 49 46 44 41 50 43 51 57 58 59 59 55 57 58 60 60 62 63 64 66 67 70 71 72 72 73 71 73 68 67 66 69 71 71 71 72
21 18 19 19 20 32 39 49 48 47 48 47 46 45 47 55 56 57 57 56 55 57 59 59 61 63 64 65 66 68 71 72 72 72 73 70 70 72 69 70 72 73 73 73
21 22 20 25 46 30 51 48 47 48 50 43 46 46 46 52 54 57 58 57 55 56 58 59 61 63 63 64 65 67 70 71 72 72 72 72 72 71 69 70 70 69 70 71
23 22 44 49 46 49 48 40 42 40 42 40 46 47 46 48 52 54 58 57 55 56 58 60 61 62 64 64 65 66 70 71 71 71 71 72 72 72 72 72 70 70 68 69
21 18 43 49 45 42 43 33 31 32 37 39 47 42 39 48 50 52 55 57 56 55 58 60 61 62 63 64 66 67 69 70 70 71 71 72 72 69 69 71 69 69 68 68
27 24 28 40 48 46 45 40 39 38 44 42 43 44 44 46 47 54 55 55 56 55 57 60 61 61 63 65 66 67 69 70 70 70 71 72 72 72 70 72 72 70 72 70
29 28 28 27 39 43 43 42 40 43 35 33 42 41 35 45 47 52 52 55 55 56 57 59 61 63 63 64 66 67 68 70 70 69 70 69 71 72 72 72 72 72 72 72
30 30 28 29 29 37 36 38 36 36 39 33 36 37 51 53 55 51 52 54 55 56 57 61 61 63 65 64 66 67 68 69 69 69 70 70 69 70 71 71 72 73 73 73
33 29 28 26 29 31 27 31 32 31 30 38 39 34 54 56 57 56 57 57 56 56 57 60 61 62 63 66 66 67 68 68 69 69 70 70 70 70 70 71 72 72 73 74
35 30 26 27 30 34 40 45 41 26 26 34 26 28 54 55 56 57 56 56 57 59 58 59 61 63 65 65 68 67 69 69 69 70 70 70 70 71 71 71 73 73 73 73
41 30 30 25 29 35 39 42 44 28 26 25 26 30 52 53 56 57 58 60 60 59 59 60 62 63 66 66 67 69 69 70 70 70 71 71 71 71 71 72 73 73 74 74
38 31 34 34 35 33 42 41 45 43 48 32 35 41 49 54 55 57 59 61 61 59 61 62 62 64 66 67 68 69 70 71 71 71 71 72 72 72 73 73 73 73 73 75
41 33 40 36 40 41 40 43 46 47 48 49 50 49 56 55 56 58 59 59 61 61 60 61 63 65 66 67 68 69 70 71 71 71 71 72 73 73 73 73 73 74 73 74
40 37 37 31 39 42 38 40 45 47 49 48 47 50 54 54 56 57 57 59 61 63 63 63 63 65 66 66 69 70 70 71 72 71 71 72 73 72 73 73 73 73 73 74
40 40 39 31 38 32 39 46 46 48 49 51 51 53 55 56 59 59 59 59 60 61 63 65 66 67 68 69 69 71 71 71 72 72 72 72 72 72 72 73 73 73 72 72
41 40 36 35 36 36 39 43 45 48 46 52 52 55 56 57 57 57 58 59 59 60 62 65 67 68 69 69 70 70 70 70 70 70 70 69 69 69 69 69 70 70 70 70
42 43 36 37 33 29 37 43 47 48 43 54 54 55 56 57 52 55 57 58 59 60 61 63 66 67 67 68 69 68 68 68 69 67 68 69 69 68 68 68 68 69 69 66
36 41 39 37 35 36 41 45 46 41 42 53 56 56 58 57 57 58 58 58 59 60 61 62 65 64 65 65 67 67 68 67 68 68 69 68 68 68 68 68 67 66 64 61
36 37 39 42 39 33 46 45 43 48 54 55 57 59 59 58 57 57 56 57 57 58 59 60 61 62 63 65 66 65 65 67 68 67 68 68 68 68 67 64 63 63 61 59
39 39 41 42 40 46 47 49 49 51 53 54 58 57 58 57 57 57 57 57 57 57 58 59 59 59 61 62 63 62 62 64 66 64 62 62 62 62 65 63 61 59 59 58
43 43 40 44 42 45 48 51 52 50 53 55 59 58 57 57 56 57 57 56 56 57 57 58 58 59 59 61 62 61 61 61 59 59 57 55 55 54 55 56 60 60 60 58
41 44 43 43 45 46 47 50 51 56 56 58 59 58 57 57 56 55 55 54 55 56 57 58 58 57 58 59 61 61 59 58 57 56 56 55 54 52 50 48 48 46 45 48
44 45 39 34 47 48 48 50 55 56 54 58 58 57 57 56 55 55 55 55 54 53 55 55 56 55 55 56 56 58 59 57 55 54 54 53 54 54 54 52 49 46 45 44
Lifted_Index
3 3 2 2 1 1 -1 -2 -2 -2 -1 -1 -1 -0 -1 -1 -1 -1 -1 -1 -2 -2 -2 -2 -2 -2 -2 -3 -3 -4 -4 -4 -4 -4 -4 -4 -4 -3 -4 -4 -5 -5 -4 -4
3 3 2 2 2 1 -0 -1 -2 -2 -1 -0 0 -0 -0 -1 -1 -1 -2 -1 -1 -2 -2 -2 -2 -2 -2 -3 -3 -4 -4 -4 -4 -4 -4 -4 -4 -4 -4 -4 -5 -4 -4 -4
3 3 2 2 1 1 0 -1 -2 -2 -1 0 0 0 -0 -1 -1 -1 -1 -1 -1 -1 -2 -2 -2 -2 -2 -2 -3 -3 -4 -4 -4 -4 -4 -4 -4 -3 -3 -4 -4 -4 -4 -4
3 3 2 2 1 1 -0 -1 -2 -2 -1 -0 -0 0 -0 -1 -1 -1 -1 -1 -1 -1 -1 -2 -2 -2 -2 -2 -2 -3 -4 -4 -4 -4 -4 -3 -3 -3 -4 -4 -5 -4 -4 -4
4 4 3 2 1 0 -1 -3 -3 -2 -2 -1 -0 0 -0 -1 -1 -1 -1 -1 -1 -1 -1 -1 -2 -2 -2 -2 -2 -3 -3 -4 -4 -4 -3 -3 -3 -3 -4 -4 -5 -5 -5 -5
4 4 3 1 0 -1 -2 -3 -3 -2 -2 -1 -0 -0 -0 -1 -1 -1 -1 -1 -1 -1 -1 -1 -1 -2 -2 -2 -2 -2 -3 -3 -3 -3 -3 -3 -4 -4 -4 -4 -4 -4 -5 -5
3 3 1 -1 -2 -2 -3 -2 -2 -2 -2 -1 -1 -0 -0 -0 -1 -1 -1 -1 -1 -0 -0 -1 -1 -1 -2 -2 -2 -2 -3 -3 -3 -3 -3 -3 -4 -4 -3 -4 -4 -4 -4 -4
3 2 -0 -2 -3 -3 -3 -2 -2 -2 -2 -1 -1 -1 -0 0 0 0 -0 -1 -1 -0 -0 -0 -1 -1 -2 -2 -2 -2 -3 -3 -3 -3 -3 -3 -4 -3 -3 -4 -4 -4 -4 -4
2 1 0 -1 -2 -3 -3 -2 -2 -2 -2 -1 -1 -1 0 0 1 1 0 -1 -1 -0 0 -0 -1 -1 -2 -2 -2 -2 -3 -3 -3 -3 -3 -3 -3 -3 -3 -3 -4 -4 -4 -4
1 1 1 -0 -1 -3 -3 -3 -3 -2 -2 -1 -1 -1 -0 -0 0 1 1 -0 -1 -1 -0 -0 -0 -1 -1 -2 -2 -2 -3 -3 -3 -2 -2 -2 -3 -3 -3 -3 -4 -4 -4 -4
1 0 0 -0 -1 -2 -2 -2 -2 -2 -2 -2 -2 -2 -2 -2 -2 -1 0 -0 -1 -1 -1 -1 -1 -1 -1 -1 -2 -2 -3 -3 -3 -3 -3 -2 -2 -3 -3 -3 -4 -4 -4 -4
1 0 -0 -0 -0 -1 -2 -2 -2 -1 -1 -1 -2 -3 -3 -4 -4 -3 -2 -1 -1 -2 -2 -1 -1 -1 -1 -1 -2 -2 -3 -3 -3 -3 -3 -3 -3 -3 -3 -3 -4 -4 -4 -4
1 1 0 -0 -1 -1 -2 -3 -2 -1 0 -0 -1 -2 -4 -5 -4 -4 -3 -2 -2 -2 -2 -2 -1 -1 -1 -1 -2 -2 -3 -3 -3 -3 -3 -3 -3 -3 -3 -3 -4 -4 -4 -4
1 1 1 -0 -0 -1 -2 -3 -3 -2 -1 -0 -0 -1 -3 -4 -4 -4 -4 -3 -3 -3 -3 -3 -2 -2 -1 -1 -2 -3 -3 -3 -3 -3 -4 -4 -4 -4 -4 -4 -4 -4 -5 -4
1 1 1 0 -1 -1 -2 -3 -4 -3 -3 -2 -1 -2 -3 -3 -3 -3 -4 -4 -4 -3 -3 -3 -3 -3 -2 -2 -3 -3 -3 -4 -4 -4 -4 -4 -4 -4 -4 -4 -4 -4 -4 -4
1 1 0 -0 -1 -2 -2 -3 -4 -4 -4 -4 -3 -3 -3 -3 -3 -3 -3 -3 -4 -4 -3 -3 -3 -3 -3 -3 -4 -4 -4 -4 -4 -4 -4 -4 -4 -4 -4 -4 -4 -4 -4 -4
1 0 -0 -0 -1 -2 -2 -3 -4 -4 -4 -4 -4 -3 -3 -3 -3 -3 -3 -3 -3 -4 -4 -3 -3 -3 -3 -4 -5 -5 -5 -4 -4 -4 -4 -4 -4 -4 -4 -4 -4 -4 -4 -4
0 0 -0 -0 -1 -1 -1 -2 -3 -4 -4 -4 -4 -3 -3 -3 -3 -3 -2 -3 -3 -3 -3 -3 -3 -4 -4 -5 -5 -5 -5 -4 -4 -4 -4 -3 -3 -3 -3 -3 -4 -3 -3 -3
1 0 -0 -1 -1 -1 -1 -2 -2 -3 -4 -4 -4 -4 -3 -3 -3 -3 -3 -3 -3 -3 -4 -4 -4 -4 -4 -4 -5 -5 -4 -4 -4 -3 -3 -2 -2 -2 -2 -2 -2 -2 -2 -2
1 0 -0 -1 -1 -1 -1 -1 -2 -3 -3 -4 -4 -4 -4 -3 -3 -3 -3 -3 -3 -3 -4 -4 -4 -4 -4 -4 -4 -4 -4 -3 -2 -2 -2 -1 -1 -1 -1 -0 -0 -0 -0 -0
0 -0 -1 -1 -1 -1 -1 -1 -2 -2 -3 -4 -5 -5 -4 -3 -2 -2 -3 -3 -3 -3 -4 -4 -3 -3 -3 -3 -3 -2 -2 -2 -1 -1 -1 -1 -0 -0 -0 0 0 0 0 0
-0 -0 -1 -1 -1 -1 -1 -2 -2 -2 -3 -4 -5 -5 -4 -3 -2 -2 -2 -3 -3 -3 -4 -4 -3 -3 -2 -2 -2 -1 -1 -1 -1 -1 -1 -0 0 0 0 0 0 0 0 1
0 -0 -1 -1 -1 -1 -1 -2 -2 -2 -3 -4 -4 -4 -3 -2 -2 -2 -2 -2 -3 -3 -3 -3 -3 -3 -3 -2 -2 -2 -1 -1 -1 -1 -1 -0 0 -0 0 0 0 1 1 1
0 0 -0 -1 -1 -1 -1 -2 -2 -3 -3 -4 -4 -3 -3 -2 -2 -1 -1 -1 -2 -2 -3 -3 -3 -3 -3 -2 -2 -2 -2 -2 -1 -1 -1 -1 -1 -1 -1 -0 0 0 1 1
0 0 -0 -0 -1 -1 -1 -2 -3 -4 -4 -4 -4 -3 -2 -2 -1 -1 -1 -1 -1 -2 -2 -2 -2 -2 -2 -2 -2 -2 -2 -2 -1 -1 -1 -1 -1 -1 -1 -1 -0 -0 0 0
1 -0 -0 -0 -1 -2 -2 -2 -3 -4 -4 -5 -4 -3 -2 -2 -1 -1 -1 -0 -1 -1 -1 -1 -1 -2 -2 -1 -1 -1 -1 -1 -1 -1 -1 -1 -1 -0 -0 -0 -0 0 0 0